Location: Forli
(44.2227°N, 12.0407°E)
Time: 03:00:23
(UTC+01:00)

ARIANE 6 FM1 Upper Stage - Pass Details

Date: 20 February 2026
Orbit: 523 x 607 km, 62.0° (Epoch: 6 March)

Event Time Altitude Azimuth Distance (km) Brightness Sun altitude
Rises 18:38:18 0° 318° (NW) 2,658 6.7 -9.7°
Reaches altitude 10° 18:40:30 10° 315° (NW) 1,766 5.8 -10.1°
Maximum altitude 18:44:25 65° 234° (SW) 582 3.0 -10.8°
Drops below altitude 10° 18:48:21 10° 152° (SSE) 1,774 5.0 -11.5°
Sets 18:50:34 0° 150° (SSE) 2,670 5.9 -11.9°
